www.pogodaiklimat.ru

Погода и климат >> Архив погоды >> Корея >> База Camp Humphreys


ПОГОДА на Базе Camp Humphreys

  • Прогноз погоды на Базе Camp Humphreys
  • Монитор погоды на Базе Camp Humphreys

АРХИВ ПОГОДЫ на Базе Camp Humphreys

Время (UTC), дата Ветер
(напр.,м/с)
 
Видим.   Явления Облачность Т
(С)
Тd
(С)
f
(%)
Тe
(С)
Тes
(С)
Комфортность P
(гПа)
Po
(гПа)
Тmin
(С)
Tmax
(С)
R
(мм)
R24
(мм)
S
(см)
00 11.06 В 3 20 км ясно +19.5 +11.0 58 +21 +30 комфорт 1009.7 996.5 +14.6 0.0
03 11.06 20 км н/о +21.5 +10.0 48 +23 +27 комфорт 1008.9 995.7
06 11.06 ЮВ 1 20 км 9/9 1500 м
[]
+22.9 +10.3 45 +25 +35 комфорт 1007.7 994.6
09 11.06 З 1 20 км 8/3 1500 м
[]
+24.5 +10.7 42 +26 +27 жарко 1006.8 993.9
12 11.06 В 1 20 км 1/0
[]
+17.7 +11.7 68 +19 +19 1008.4 995.1 +25.1
15 11.06 штиль 0 20 км 3/0
[]
+14.8 +11.5 81 +15 +15 1010.0 996.4
18 11.06 В 1 20 км ясно +13.6 +11.6 88 +14 +14 1010.5 996.9
21 11.06 штиль 0 11 км ясно +13.1 +12.3 95 +13 +13 1011.3 997.7
00 12.06 С 1 16 км ясно +20.0 +13.9 68 +23 +35 комфорт 1011.4 998.1 +12.1
03 12.06 СЗ 2 19 км ясно +24.2 +12.8 49 +26 +47 жарко 1010.2 997.2
06 12.06 З 2 20 км 5/5 1500 м
[]
+26.8 +12.0 40 +28 +35 жарко 1008.8 995.9
09 12.06 СЗ 2 20 км 3/0
[]
+26.6 +12.2 41 +28 +30 жарко 1008.1 995.2
12 12.06 В 1 13 км 6/0
[]
+21.3 +15.3 69 +24 +24 комфорт 1010.1 996.9 +27.9
15 12.06 В 1 13 км 3/0
[]
+17.7 +14.3 80 +19 +19 1011.0 997.6
18 12.06 В 1 8000 м ясно +15.8 +13.9 88 +16 +16 1011.2 997.7
21 12.06 штиль 0 3300 м ясно +15.1 +14.2 94 +15 +15 1012.0 998.4
00 13.06 С 1 9000 м ясно +21.6 +16.1 71 +25 +37 комфорт 1011.5 998.3 +14.4
03 13.06 З 2 13 км ясно +26.9 +14.9 48 +30 +50 душно 1009.8 996.9
06 13.06 З 2 17 км 1/0
[]
+29.7 +13.8 38 +31 +46 жарко 1007.1 994.4
09 13.06 С 3 19 км 8/1 2000 м
[]
+28.2 +12.5 38 +30 +31 жарко 1006.7 993.9
12 13.06 В 1 20 км 6/0
[]
+22.1 +14.9 64 +26 +26 душно 1008.2 995.1 +30.0
15 13.06 штиль 0 18 км 8/0
[]
+19.7 +14.7 73 +21 +21 комфорт 1008.7 995.5
18 13.06 В 1 17 км 8/0
[]
+18.0 +14.2 78 +19 +19 1007.5 994.2
21 13.06 В 1 12 км 10/6
[]
+17.5 +15.1 86 +19 +19 1007.4 994.1
00 14.06 З 1 10 км ?/? +20.5 +15.2 72 +24 +27 комфорт 1007.1 993.9 +17.1
03 14.06 З 1 7000 м 9/4
[]
+23.7 +14.6 57 +26 +35 жарко 1006.2 993.2
06 14.06 З 1 16 км ?/? +24.2 +13.1 50 +26 +26 жарко 1004.3 991.4
09 14.06 ЮЗ 1 15 км 9//
[]
+24.5 +14.2 53 +27 +29 жарко 1003.1 990.2
12 14.06 В 1 16 км 8/1
[]
+20.0 +15.0 73 +23 +23 комфорт 1003.5 990.3
15 14.06 СВ 2 7000 м 8/1 1000 м
[]
+17.6 +15.7 89 +18 +18 1003.3 990.0
18 14.06 В 1 3600 м 3/0
[]
+16.0 +14.8 93 +17 +17 1001.5 988.1
21 14.06 В 1 2300 м 6/0
[]
+15.0 +14.1 94 +15 +16 1001.6 988.2
00 15.06 В 1 7000 м 5/0
[]
+20.8 +15.7 73 +25 +34 комфорт 1001.5 988.4
03 15.06 12 км н/о +24.5 +15.9 59 +28 +34 душно 999.2 986.4
06 15.06 З 4 17 км 5/5 1500 м
[]
+27.4 +15.7 49 +30 +36 жарко 996.7 984.0
09 15.06 З 5 15 км 6/1 1500 м
[]
+24.9 +16.0 58 +28 +29 жарко 996.8 983.9
12 15.06 ЮВ 2 20 км 8/8 600 м
[]
+18.3 +14.3 77 +19 +19 999.5 986.3 +27.7 0.0
15 15.06 В 2 20 км 3/0
[]
+15.8 +14.3 91 +16 +16 1002.8 989.4
18 15.06 штиль 0 18 км 6/5 200 м
[]
+14.6 +13.6 94 +14 +14 1003.3 989.9
21 15.06 штиль 0 17 км 1/1 200 м
[]
+14.6 +13.8 95 +14 +15 1005.4 991.9
00 16.06 З 2 16 км 6/6 300 м
[]
+18.8 +14.8 78 +20 +24 1007.1 993.9 +13.3 0.0
03 16.06 19 км н/о +23.3 +13.4 54 +27 +34 душно 1006.7 993.7
06 16.06 С 2 19 км 8/8 1500 м
[]
+26.5 +12.5 42 +28 +31 жарко 1006.4 993.5
09 16.06 С 2 20 км 5/0
[]
+26.7 +12.3 41 +28 +30 жарко 1006.5 993.6
12 16.06 ЮЗ 1 20 км 8/8 1500 м
[]
+22.7 +14.7 61 +26 +26 жарко 1008.9 995.8
15 16.06 19 км н/о +19.5 +14.9 75 +21 +21 комфорт 1010.3 997.1
18 16.06 20 км н/о +19.7 +15.1 75 +23 +23 комфорт 1010.9 997.7
21 16.06 В 1 14 км 10//
[]
+17.9 +15.1 84 +19 +19 1012.1 998.7
00 17.06 З 2 19 км 8/1 600 м
[]
+21.2 +14.3 65 +24 +30 комфорт 1012.7 999.5
03 17.06 З 3 20 км 4/4 1000 м
[]
+24.6 +13.4 50 +27 +37 жарко 1012.1 999.1
06 17.06 З 3 20 км 3/0
[]
+26.6 +12.9 43 +28 +39 жарко 1011.0 998.0
09 17.06 З 3 19 км ясно +25.8 +13.2 46 +28 +30 жарко 1010.4 997.4
12 17.06 20 км 4/0 2000 м
[]
+21.6 +14.7 65 1011.6 998.4 +27.3
15 17.06 В 2 16 км 3/1
[]
+18.2 +14.8 81 +19 +19 1012.2 998.9
18 17.06 штиль 0 10 км 8/8 1500 м
[]
+17.1 +15.2 89 +17 +17 1012.0 998.6
21 17.06 штиль 0 3200 м 8/1 1500 м
[]
+17.1 +16.4 96 +17 +17 1012.1 998.7

 

Местоположение метеостанции База Camp Humphreys (Корея): широта 36.95 долгота 127.03 высота над уровнем моря 14 м.

В архиве по умолчанию представлена погода на Базе Camp Humphreys за последнюю неделю. Архивные данные за месяц целиком и за предыдущие месяцы, начиная с января 2011 года, Вы можете получить, выбрав интересующий диапазон дат из раскрывающегося списка и нажав кнопку "Ввод!".


*Определитесь, кто Вы:
робот инопланетянин человек

Внимание! Время в таблицах - всемирное. Для получения местного времени необходимо прибавить поправку, которая равна 9 ч.

Смотрите также архив погоды в соседних городах и на ближайших метеорологических станциях:

Погода в Чхонане (Корея) (22 км)
Погода в Сувоне (Корея) (36 км)
Погода в Хонсоне (Корея) (44 км)
Погода в Сосане (Корея) (51 км)
Погода в Чхонджу (Корея) (52 км)
Погода в Ичхоне (Корея) (53 км)
Погода в Инчхоне (Корея) (68 км)
Погода в Сеуле (Корея) (69 км)
Погода в Тэджоне (Корея) (71 км)
Погода в Порёне (Корея) (81 км)

Пояснения к столбцам:

Ветер - указаны скорость ветра в м/с - средняя за 10 мин, порывы в срок и между сроками (в фигурных скобках) и направление, откуда дует ветер: С - северный, СВ - северо-восточный, В - восточный, ЮВ - юго-восточный, Ю - южный, ЮЗ - юго-западный, З - западный, СЗ - северо-западный.
Видимость - горизонтальная дальность видимости в метрах или километрах. При видимости от 1 до 10 км при отсутствии осадков обычно наблюдается дымка, при ухудшении видимости до 1 км и менее - туман. В сухую погоду видимость может ухудшаться дымом, пылью или мглою.
Явления - указаны атмосферные явления, наблюдавшиеся в срок или в последний час перед сроком; фигурными скобками обозначены явления, наблюдавшиеся между сроками (за 1-3 часа до срока); квадратными скобками обозначены град или гололедные отложения с указанием их диаметра в мм.
Облачность - указаны через наклонную черту общая и нижняя облачность в баллах и высота нижней границы облаков в метрах; квадратными скобками обозначены формы облаков: Ci - перистые, Cs - перисто-слоистые, Cc - перисто-кучевые, Ac - высококучевые, As - высокослоистые, Sc - слоисто-кучевые, Ns - слоисто-дождевые, Cu - кучевые, Cb - кучево-дождевые. Подробнее классификацию облаков см. в Атласе облаков (PDF).
T - Температура воздуха - температура, измеренная на высоте 2 м над землей.
Td - Температура точки росы - температура, при понижении до которой содержащийся в воздухе водяной пар достигнет насыщения.
f - Относительная влажность воздуха - влажноcть воздуха, измеренная на высоте 2 м над землей.
Te - Эффективная температура - температура, которую ощущает одетый по сезону человек в тени. Характеристика душности погоды. При расчете учитывается влияние влажности воздуха и скорости ветра на теплоощущения человека.
Tes - Эффективная температура на солнце - температура, которую ощущает человек, с поправкой на солнечный нагрев. Характеристика знойности погоды. Зависит от высоты солнца над горизонтом, облачности и скорости ветра. Ночью, в пасмурную погоду, а также при ветре 12 м/с и более поправка равна нулю.
P - Атмосферное давление - приведенное к уровню моря атмосферное давление.
Po - Атмосферное давление - измеренное на уровне метеостанции атмосферное давление.
Tmin - Минимальная температура - минимум температуры воздуха на высоте 2 м над землей.
Tmax - Максимальная температура - максимум температуры воздуха на высоте 2 м над землей.
R - Количество осадков - Количество выпавших осадков за период времени, мм. При наведении курсора мыши на число - период времени, за который выпало указанное количество осадков.
R24 - Количество осадков - Количество выпавших осадков за 24 часа, мм.
S - Снежный покров - Высота снежного покрова, см. При наведении курсора мыши на число - состояние снежного покрова и степень покрытия местности в баллах.